Date,TemperatureHighF,TemperatureAvgF,TemperatureLowF,DewpointHighF,DewpointAvgF,DewpointLowF,HumidityHigh,HumidityAvg,HumidityLow,PressureMaxIn,PressureMinIn,WindSpeedMaxMPH,WindSpeedAvgMPH,GustSpeedMaxMPH,PrecipitationSumIn
2013-10-1,68.0,64.4,55.0,62.0,59.6,53.0,93,85,76,30.04,30.02,0,0,3,0.01
2013-10-2,84.0,70.5,59.0,62.0,58.5,55.0,92,69,40,30.09,30.01,5,1,10,0.00
2013-10-3,84.0,71.3,59.0,65.0,60.9,56.0,93,72,45,30.10,30.02,5,1,10,0.00
2013-10-4,85.0,72.0,61.0,67.0,62.0,58.0,96,74,42,30.10,30.01,5,1,10,0.00
2013-10-5,87.0,74.1,61.0,67.0,62.7,60.0,96,71,41,30.08,29.98,5,1,10,0.00
2013-10-6,83.0,72.2,63.0,70.0,66.6,61.0,97,83,56,30.03,29.90,8,2,14,0.00
2013-10-7,75.0,71.4,64.0,71.0,68.7,59.0,95,91,84,29.94,29.81,10,3,19,0.35
2013-10-8,65.0,58.9,55.0,59.0,49.8,43.0,91,72,56,30.15,29.93,9,5,19,0.03
2013-10-9,62.0,58.2,55.0,55.0,51.6,49.0,92,79,71,30.14,30.04,12,6,21,0.05
2013-10-10,61.0,56.6,54.0,58.0,53.9,51.0,94,91,88,30.04,29.90,11,7,20,0.09
2013-10-11,67.0,62.0,58.0,62.0,58.6,57.0,95,89,74,29.93,29.87,6,3,12,0.01
2013-10-12,67.0,63.7,61.0,64.0,60.4,58.0,93,89,83,30.03,29.91,5,2,10,0.01
2013-10-13,67.0,63.4,62.0,63.0,59.8,-99.9,96,91,84,30.15,30.03,6,3,12,0.08
2013-10-14,66.0,62.3,58.0,62.0,59.6,55.0,96,91,81,30.19,30.12,6,4,14,0.09
2013-10-15,70.0,61.9,53.0,60.0,56.5,52.0,96,83,66,30.16,30.02,6,2,13,0.01
2013-10-16,69.0,64.6,61.0,61.0,60.3,59.0,95,86,74,30.03,29.93,3,0,6,0.01
2013-10-17,76.0,66.7,59.0,64.0,61.2,58.0,96,83,63,29.94,29.81,7,2,13,0.00
2013-10-18,67.0,62.9,58.0,64.0,53.4,44.0,93,72,52,30.01,29.84,5,1,12,0.00
2013-10-19,68.0,63.4,60.0,63.0,59.6,54.0,95,87,78,29.95,29.79,4,1,9,0.03
2013-10-20,65.0,55.6,46.0,59.0,44.4,-99.9,94,71,42,30.09,29.86,7,2,14,0.02
2013-10-21,68.0,52.8,39.0,50.0,44.4,38.0,97,76,39,30.13,29.98,3,0,7,0.02
2013-10-22,63.0,58.3,52.0,58.0,53.1,47.0,92,83,75,29.98,29.78,3,1,9,0.01
2013-10-23,67.0,59.1,49.0,58.0,47.7,31.0,96,70,30,29.96,29.66,11,4,20,0.00
2013-10-24,59.0,46.9,36.0,39.0,33.7,29.0,86,63,36,30.15,29.96,6,1,14,0.00
2013-10-25,55.0,47.1,35.0,35.0,28.8,24.0,86,52,31,30.34,30.15,8,3,17,0.00
2013-10-26,58.0,43.7,28.0,35.0,30.4,26.0,94,64,32,30.34,30.07,8,2,14,0.00
2013-10-27,68.0,53.2,41.0,46.0,37.5,-99.9,89,59,36,30.10,30.02,6,1,12,0.00
2013-10-28,65.0,53.8,44.0,54.0,47.1,-99.9,93,82,59,30.23,30.09,3,0,6,0.00
2013-10-29,71.0,57.6,48.0,56.0,51.6,47.0,97,83,53,30.30,30.22,3,0,7,0.00
2013-10-30,73.0,61.9,52.0,59.0,54.6,50.0,97,79,52,30.27,30.14,6,1,14,0.00
2013-10-31,74.0,64.0,56.0,62.0,55.5,53.0,95,76,49,30.17,29.91,10,2,17,0.00